Weather History for Hilo, HI

Change the Weather History Date:

Tuesday, January 1, 2013

  Actual Average Record
Temperature  
Mean Temperature 72 °F 72 °F  
Max Temperature 80 °F 79 °F 85 °F (1969)
Min Temperature 63 °F 64 °F 57 °F (1969)
Degree Days  
Heating Degree Days 0 0  
Month to date heating degree days 0 0  
Since 1 July heating degree days 0 0  
Cooling Degree Days 7 7  
Month to date cooling degree days 7 7  
Year to date cooling degree days 7 7  
Growing Degree Days 22 (Base 50)    
Moisture  
Dew Point 63 °F    
Average Humidity 80    
Maximum Humidity 93    
Minimum Humidity 67    
Precipitation  
Precipitation 0.00 in 0.29 in 4.18 in (1990)
Month to date precipitation 0.00 0.29  
Year to date precipitation 0.00 0.29  
Snow  
Snow 0.00 in - - ()
Month to date snowfall 0.0  
Since 1 July snowfall 0.0  
Snow Depth 0.00 in    
Sea Level Pressure  
Sea Level Pressure 30.06 in    
Wind  
Wind Speed 6 mph (WSW)    
Max Wind Speed 12 mph    
Max Gust Speed 14 mph    
Visibility 9 miles    
Events      
T = Trace of Precipitation, MM = Missing Value Source: NWS Daily Summary

Daily Weather History Graph

Daily Weather History Graph

Search for Another Location

Airport:

Trip Planner

Search our weather history database for the weather conditions in past years. The results will help you decide how hot, cold, wet, or windy it might be!

Date:

Astronomy

Jan. 01, 2013 Rise Set
Actual Time 6:54 AM HST 5:53 PM HST
Civil Twilight 6:31 AM HST 6:17 PM HST
Nautical Twilight 6:03 AM HST 6:44 PM HST
Astronomical Twilight 5:36 AM HST 7:11 PM HST
Moon 9:56 PM HST (1/1) 9:47 AM HST (1/1)
Length of Visible Light 11h 46m
Length of Day
10h 58m
Waning Gibbous, 82% of the Moon is Illuminated
Jan 1
Waning Gibbous
Jan 4
Last Quarter
Jan 11
New
Jan 18
First Quarter
Jan 26
Full

Hourly Weather History & Observations

Time (HST) Temp. Dew Point Humidity Pressure Visibility Wind Dir Wind Speed Gust Speed Precip Events Conditions
12:53 AM 64.9 °F 60.1 °F 84% 30.09 in 3.0 mi SW 6.9 mph - N/A   Haze
1:53 AM 64.9 °F 60.1 °F 84% 30.07 in 5.0 mi SW 8.1 mph - N/A   Haze
2:53 AM 64.0 °F 59.0 °F 84% 30.06 in 10.0 mi West 5.8 mph - N/A   Clear
3:53 AM 64.0 °F 59.0 °F 84% 30.06 in 10.0 mi WSW 5.8 mph - N/A   Scattered Clouds
4:53 AM 64.0 °F 57.0 °F 78% 30.06 in 10.0 mi SW 8.1 mph - N/A   Clear
5:53 AM 64.0 °F 55.9 °F 75% 30.07 in 10.0 mi SW 4.6 mph - N/A   Clear
6:53 AM 64.0 °F 57.0 °F 78% 30.09 in 10.0 mi SW 4.6 mph - N/A   Mostly Cloudy
7:53 AM 66.9 °F 59.0 °F 76% 30.10 in 10.0 mi SW 4.6 mph - N/A   Partly Cloudy
8:53 AM 73.0 °F 62.1 °F 68% 30.12 in 10.0 mi SW 4.6 mph - N/A   Mostly Cloudy
9:53 AM 75.9 °F 64.9 °F 69% 30.12 in 10.0 mi SSE 5.8 mph - N/A   Mostly Cloudy
10:53 AM 78.1 °F 66.0 °F 66% 30.10 in 10.0 mi NE 8.1 mph - N/A   Mostly Cloudy
11:53 AM 78.1 °F 66.0 °F 66% 30.07 in 10.0 mi NNE 6.9 mph - N/A   Mostly Cloudy
12:53 PM 77.0 °F 66.0 °F 69% 30.04 in 10.0 mi North 5.8 mph - N/A   Mostly Cloudy
1:51 PM 77.0 °F 66.2 °F 69% 30.02 in 10.0 mi ESE 5.8 mph - N/A   Mostly Cloudy
1:53 PM 78.1 °F 66.9 °F 68% 30.01 in 10.0 mi Variable 4.6 mph - N/A   Mostly Cloudy
2:53 PM 77.0 °F 66.0 °F 69% 30.00 in 10.0 mi NE 10.4 mph - N/A   Mostly Cloudy
3:53 PM 75.9 °F 64.9 °F 69% 30.01 in 10.0 mi NE 8.1 mph - N/A   Mostly Cloudy
4:03 PM 75.9 °F 64.9 °F 69% 30.01 in 10.0 mi Variable 6.9 mph - N/A   Mostly Cloudy
4:45 PM 75.0 °F 64.9 °F 71% 30.02 in 10.0 mi ENE 5.8 mph - N/A   Scattered Clouds
4:53 PM 75.0 °F 64.9 °F 71% 30.02 in 10.0 mi ENE 6.9 mph - N/A   Partly Cloudy
5:53 PM 73.0 °F 64.9 °F 76% 30.04 in 10.0 mi Calm Calm - N/A   Partly Cloudy
6:08 PM 73.0 °F 64.9 °F 76% 30.04 in 10.0 mi NNE 3.5 mph - N/A   Mostly Cloudy
6:44 PM 72.0 °F 64.9 °F 78% 30.06 in 10.0 mi NNE 3.5 mph - N/A   Scattered Clouds
6:53 PM 72.0 °F 64.0 °F 76% 30.05 in 8.0 mi NNE 3.5 mph - N/A   Partly Cloudy
7:53 PM 69.1 °F 64.9 °F 87% 30.07 in 10.0 mi Calm Calm - N/A   Clear
8:53 PM 66.9 °F 64.0 °F 90% 30.09 in 10.0 mi WSW 5.8 mph - N/A   Clear
9:53 PM 66.9 °F 62.1 °F 84% 30.09 in 10.0 mi SW 4.6 mph - N/A   Clear
10:53 PM 64.9 °F 60.1 °F 84% 30.09 in 10.0 mi SW 4.6 mph - N/A   Clear
11:53 PM 64.0 °F 59.0 °F 84% 30.08 in 10.0 mi SW 5.8 mph - N/A   Clear